Overview Statistics Trail Chart Weather Telemetry Raw packets
 

This is the latest recevied weather packets stored in our database for station/object KK7MLS-13. If no packets are shown the sender has not sent any weather packets the latest 10 day(s).

<< 20 21 22 23 24 25 26 >>
Time Temp. Humidity Pressure Rain* Wind** Luminosity Snow
1788541343 15° C 89% 1013 hPa 0 mm - 177 W/m² -
1788541023 14.44° C 90% 1013.1 hPa 0 mm - 199 W/m² -
1788540723 14.44° C 90% 1013.2 hPa 0 mm - 193 W/m² -
1788540417 14.44° C 91% 1013 hPa 0 mm - 142 W/m² -
1788540112 13.89° C 92% 1013 hPa 0 mm - 131 W/m² -
1788539808 13.89° C 91% 1012.9 hPa 0 mm - 140 W/m² -
1788539504 13.33° C 92% 1013 hPa 0 mm - 90 W/m² -
1788539202 13.33° C 92% 1012.9 hPa 0 mm - 69 W/m² -
1788538898 13.33° C 92% 1012.9 hPa 0 mm - 72 W/m² -
1788538593 13.33° C 94% 1012.7 hPa 0 mm - 132 W/m² -
1788538288 12.78° C 94% 1012.6 hPa 0 mm - 127 W/m² -
1788537984 12.78° C 93% 1012.7 hPa 0 mm - 107 W/m² -
1788537679 12.78° C 94% 1012.8 hPa 0 mm - 93 W/m² -
1788537374 12.78° C 94% 1012.7 hPa 0 mm - 87 W/m² -
1788537068 12.78° C 94% 1012.8 hPa 0 mm - 80 W/m² -
1788536761 12.22° C 95% 1012.9 hPa 0 mm - 88 W/m² -
1788536456 12.22° C 95% 1013 hPa 0 mm - 61 W/m² -
1788536156 12.22° C 95% 1012.8 hPa 0 mm - 54 W/m² -
1788535852 12.22° C 95% 1012.9 hPa 0 mm - 55 W/m² -
1788535548 12.22° C 95% 1012.7 hPa 0 mm - 41 W/m² -
1788535243 12.22° C 96% 1012.7 hPa 0 mm - 36 W/m² -
1788534938 12.22° C 96% 1012.6 hPa 0 mm - 32 W/m² -
1788534637 12.22° C 96% 1012.7 hPa 0 mm - 28 W/m² -
1788534332 12.22° C 96% 1012.6 hPa 0 mm - 19 W/m² -
1788534027 11.67° C 96% 1012.3 hPa 0 mm - 34 W/m² -

* Rain latest hour (hover to see other rain measurements)
** Current wind speed in m/s (hover to see current wind gust speed)